Location: Klamath Falls
(42.2250°N, 121.7810°W)
Time: 19:05:01
(UTC-07:00)

ISS - Visible Passes

Search period start: 23 September 2018 00:00
Search period end: 03 October 2018 00:00
Orbit: 403 x 409 km, 51.6° (Epoch: 24 September)

Date Brightness Start Highest point End Pass type
(mag) Time Alt. Az. Time Alt. Az. Time Alt. Az.
23 Sep -3.5 19:49:55 10° SW 19:53:06 49° SE 19:55:55 13° ENE visible
23 Sep -1.3 21:26:50 10° W 21:28:36 22° WNW 21:28:36 22° WNW visible
24 Sep -2.7 20:34:38 10° W 20:37:47 41° NNW 20:39:09 26° NNE visible
25 Sep -3.6 19:42:35 10° WSW 19:45:52 70° NNW 19:49:09 10° NE visible
25 Sep -1.2 21:20:19 10° WNW 21:22:14 19° NNW 21:22:14 19° NNW visible
26 Sep -1.8 20:27:57 10° WNW 20:30:46 25° NNW 20:32:31 16° NNE visible
27 Sep -2.4 19:35:39 10° W 19:38:43 35° NNW 19:41:47 10° NE visible
27 Sep -1.1 21:13:45 10° NW 21:15:23 16° NNW 21:15:23 16° NNW visible
28 Sep -1.4 20:21:23 10° WNW 20:23:46 18° NNW 20:25:31 13° NNE visible
29 Sep -1.7 19:28:58 10° WNW 19:31:39 22° NNW 19:34:20 10° NE visible
29 Sep -1.1 21:06:52 10° NW 21:08:16 15° NNW 21:08:16 15° NNW visible
30 Sep -1.4 20:14:41 10° NW 20:16:49 16° N 20:18:18 13° NNE visible
01 Oct -1.5 19:22:19 10° NW 19:24:37 17° N 19:26:55 10° NE visible
01 Oct -1.2 20:59:38 10° NW 21:00:59 16° NNW 21:00:59 16° NNW visible
02 Oct -1.6 20:07:39 10° NW 20:09:50 16° N 20:10:59 14° NNE visible
